Time,TemperatureF,DewpointF,PressureIn,WindDirection,WindDirectionDegrees,WindSpeedMPH,WindSpeedGustMPH,Humidity,HourlyPrecipIn,Conditions,Clouds,dailyrainin,SolarRadiationWatts/m^2,SoftwareType,DateUTC
2013-02-21 00:12:00,24.5,15.0,30.23,ENE,60,3.0,8.0,67,0.00,,,0.00,0,weatherlink.com 1.10,2013-02-21 06:12:00,
2013-02-21 00:27:00,24.6,15.0,30.21,East,88,3.0,13.0,67,0.00,,,0.00,0,weatherlink.com 1.10,2013-02-21 06:27:00,
2013-02-21 00:42:00,24.7,15.0,30.22,East,98,2.0,9.0,67,0.00,,,0.00,0,weatherlink.com 1.10,2013-02-21 06:42:00,
2013-02-21 00:57:00,24.8,15.0,30.23,NE,54,3.0,9.0,67,0.00,,,0.00,0,weatherlink.com 1.10,2013-02-21 06:57:00,
2013-02-21 01:12:00,24.8,15.0,30.23,ENE,68,1.0,9.0,66,0.00,,,0.00,0,weatherlink.com 1.10,2013-02-21 07:12:00,
2013-02-21 01:27:00,24.7,15.0,30.20,ESE,104,2.0,10.0,67,0.00,,,0.00,0,weatherlink.com 1.10,2013-02-21 07:27:00,
2013-02-21 01:42:00,24.7,15.0,30.21,East,91,5.0,11.0,67,0.00,,,0.00,0,weatherlink.com 1.10,2013-02-21 07:42:00,
2013-02-21 01:57:00,24.6,15.0,30.18,ENE,63,3.0,12.0,67,0.00,,,0.00,0,weatherlink.com 1.10,2013-02-21 07:57:00,
2013-02-21 02:12:00,24.3,15.0,30.16,East,82,7.0,12.0,67,0.00,,,0.00,0,weatherlink.com 1.10,2013-02-21 08:12:00,
2013-02-21 02:27:00,24.2,15.0,30.16,ENE,59,8.0,13.0,68,0.00,,,0.00,0,weatherlink.com 1.10,2013-02-21 08:27:00,
2013-02-21 02:42:00,24.2,15.0,30.16,East,84,3.0,13.0,68,0.00,,,0.00,0,weatherlink.com 1.10,2013-02-21 08:42:00,
2013-02-21 02:57:00,24.0,15.0,30.16,ENE,74,3.0,8.0,69,0.00,,,0.00,0,weatherlink.com 1.10,2013-02-21 08:57:00,
2013-02-21 03:12:00,23.9,15.0,30.15,NE,35,7.0,11.0,69,0.00,,,0.00,0,weatherlink.com 1.10,2013-02-21 09:12:00,
2013-02-21 03:27:00,23.7,15.0,30.15,ESE,106,4.0,11.0,69,0.00,,,0.00,0,weatherlink.com 1.10,2013-02-21 09:27:00,
2013-02-21 03:42:00,23.6,15.0,30.14,East,89,5.0,11.0,70,0.00,,,0.00,0,weatherlink.com 1.10,2013-02-21 09:42:00,
2013-02-21 03:57:00,23.7,15.0,30.12,East,84,9.0,11.0,69,0.00,,,0.00,0,weatherlink.com 1.10,2013-02-21 09:57:00,
2013-02-21 04:12:00,23.6,15.0,30.09,ENE,73,5.0,13.0,69,0.00,,,0.00,0,weatherlink.com 1.10,2013-02-21 10:12:00,
2013-02-21 04:27:00,23.4,15.0,30.13,East,97,3.0,9.0,70,0.00,,,0.00,0,weatherlink.com 1.10,2013-02-21 10:27:00,
2013-02-21 04:42:00,23.7,15.0,30.11,ENE,75,4.0,11.0,69,0.00,,,0.00,0,weatherlink.com 1.10,2013-02-21 10:42:00,
2013-02-21 04:57:00,23.5,15.0,30.08,ENE,65,7.0,12.0,70,0.00,,,0.00,0,weatherlink.com 1.10,2013-02-21 10:57:00,
2013-02-21 05:13:00,23.2,15.0,30.08,ESE,103,1.0,14.0,71,0.00,,,0.00,0,weatherlink.com 1.10,2013-02-21 11:13:00,
2013-02-21 05:28:00,23.0,15.0,30.07,ENE,73,5.0,11.0,71,0.00,,,0.00,0,weatherlink.com 1.10,2013-02-21 11:28:00,
2013-02-21 05:43:00,23.1,15.0,30.09,ENE,66,5.0,10.0,71,0.00,,,0.00,0,weatherlink.com 1.10,2013-02-21 11:43:00,
2013-02-21 05:58:00,23.3,16.0,30.09,East,91,5.0,12.0,72,0.00,,,0.00,0,weatherlink.com 1.10,2013-02-21 11:58:00,
2013-02-21 06:13:00,22.8,17.0,30.07,NE,48,7.0,11.0,78,0.00,,,0.00,0,weatherlink.com 1.10,2013-02-21 12:13:00,
2013-02-21 06:28:00,22.5,17.0,30.05,East,88,3.0,14.0,80,0.00,,,0.00,0,weatherlink.com 1.10,2013-02-21 12:28:00,
2013-02-21 06:43:00,22.1,18.0,30.05,ENE,61,7.0,14.0,83,0.00,,,0.00,0,weatherlink.com 1.10,2013-02-21 12:43:00,
2013-02-21 06:58:00,21.7,18.0,30.05,NE,56,8.0,9.0,86,0.00,,,0.00,0,weatherlink.com 1.10,2013-02-21 12:58:00,
2013-02-21 07:13:00,21.4,18.0,30.03,NE,34,6.0,13.0,88,0.00,,,0.00,0,weatherlink.com 1.10,2013-02-21 13:13:00,
2013-02-21 07:28:00,21.4,19.0,30.07,East,83,3.0,9.0,89,0.00,,,0.00,0,weatherlink.com 1.10,2013-02-21 13:28:00,
2013-02-21 07:43:00,21.5,19.0,30.09,ESE,115,4.0,10.0,89,0.00,,,0.00,0,weatherlink.com 1.10,2013-02-21 13:43:00,
2013-02-21 07:58:00,21.5,19.0,30.07,ENE,73,8.0,11.0,90,0.00,,,0.00,0,weatherlink.com 1.10,2013-02-21 13:58:00,
2013-02-21 08:13:00,21.5,19.0,30.06,ENE,75,8.0,10.0,90,0.00,,,0.00,5,weatherlink.com 1.10,2013-02-21 14:13:00,
2013-02-21 08:28:00,21.6,19.0,30.05,ENE,74,4.0,13.0,90,0.00,,,0.00,5,weatherlink.com 1.10,2013-02-21 14:28:00,
2013-02-21 08:43:00,21.6,19.0,30.04,ESE,106,4.0,12.0,91,0.00,,,0.00,9,weatherlink.com 1.10,2013-02-21 14:43:00,
2013-02-21 08:58:00,21.6,19.0,30.02,NE,37,12.0,15.0,91,0.00,,,0.00,18,weatherlink.com 1.10,2013-02-21 14:58:00,
2013-02-21 09:13:00,21.7,20.0,30.01,ENE,61,4.0,16.0,91,0.00,,,0.00,19,weatherlink.com 1.10,2013-02-21 15:13:00,
2013-02-21 09:28:00,21.8,20.0,29.97,ENE,73,7.0,14.0,91,0.00,,,0.00,37,weatherlink.com 1.10,2013-02-21 15:28:00,
2013-02-21 09:43:00,21.8,20.0,29.96,NE,45,6.0,19.0,91,0.00,,,0.00,58,weatherlink.com 1.10,2013-02-21 15:43:00,
2013-02-21 09:58:00,22.0,20.0,29.95,East,91,10.0,16.0,91,0.00,,,0.00,114,weatherlink.com 1.10,2013-02-21 15:58:00,
2013-02-21 10:13:00,22.4,20.0,29.94,East,83,11.0,17.0,91,0.00,,,0.00,116,weatherlink.com 1.10,2013-02-21 16:13:00,
2013-02-21 10:28:00,22.6,20.0,29.93,ENE,65,14.0,16.0,91,0.00,,,0.00,125,weatherlink.com 1.10,2013-02-21 16:28:00,
2013-02-21 10:43:00,22.8,21.0,29.91,ENE,64,5.0,18.0,91,0.00,,,0.00,192,weatherlink.com 1.10,2013-02-21 16:43:00,
2013-02-21 10:58:00,23.2,21.0,29.92,East,98,5.0,14.0,91,0.00,,,0.00,160,weatherlink.com 1.10,2013-02-21 16:58:00,
2013-02-21 11:13:00,23.3,21.0,29.93,ESE,109,5.0,15.0,91,0.00,,,0.00,113,weatherlink.com 1.10,2013-02-21 17:13:00,
2013-02-21 11:28:00,23.3,21.0,29.92,ESE,103,10.0,13.0,91,0.00,,,0.00,125,weatherlink.com 1.10,2013-02-21 17:28:00,
2013-02-21 11:43:00,23.5,21.0,29.91,ESE,103,11.0,16.0,91,0.00,,,0.00,178,weatherlink.com 1.10,2013-02-21 17:43:00,
2013-02-21 11:58:00,23.9,22.0,29.91,ENE,62,7.0,15.0,91,0.00,,,0.00,174,weatherlink.com 1.10,2013-02-21 17:58:00,
2013-02-21 12:14:00,24.0,22.0,29.90,NE,38,10.0,15.0,90,0.00,,,0.00,155,weatherlink.com 1.10,2013-02-21 18:14:00,
2013-02-21 12:29:00,24.2,22.0,29.87,ENE,77,7.0,16.0,90,0.00,,,0.00,193,weatherlink.com 1.10,2013-02-21 18:29:00,
2013-02-21 12:44:00,24.4,22.0,29.88,East,101,7.0,14.0,91,0.00,,,0.00,169,weatherlink.com 1.10,2013-02-21 18:44:00,
2013-02-21 12:59:00,24.7,23.0,29.86,ENE,58,10.0,17.0,91,0.00,,,0.00,188,weatherlink.com 1.10,2013-02-21 18:59:00,
2013-02-21 13:14:00,24.9,23.0,29.86,East,96,10.0,21.0,91,0.00,,,0.00,149,weatherlink.com 1.10,2013-02-21 19:14:00,
2013-02-21 13:29:00,25.1,23.0,29.85,East,93,7.0,16.0,91,0.00,,,0.00,141,weatherlink.com 1.10,2013-02-21 19:29:00,
2013-02-21 13:44:00,25.4,23.0,29.84,East,97,5.0,14.0,91,0.00,,,0.00,118,weatherlink.com 1.10,2013-02-21 19:44:00,
2013-02-21 13:59:00,25.5,23.0,29.84,East,92,10.0,16.0,91,0.00,,,0.00,113,weatherlink.com 1.10,2013-02-21 19:59:00,
2013-02-21 14:14:00,25.8,24.0,29.83,East,85,6.0,16.0,91,0.00,,,0.00,100,weatherlink.com 1.10,2013-02-21 20:14:00,
2013-02-21 14:29:00,26.0,24.0,29.83,NE,41,5.0,12.0,91,0.00,,,0.00,90,weatherlink.com 1.10,2013-02-21 20:29:00,
2013-02-21 14:44:00,26.0,24.0,29.83,East,85,11.0,12.0,91,0.00,,,0.00,76,weatherlink.com 1.10,2013-02-21 20:44:00,
2013-02-21 14:59:00,26.1,24.0,29.82,East,96,6.0,14.0,91,0.00,,,0.00,81,weatherlink.com 1.10,2013-02-21 20:59:00,
2013-02-21 15:14:00,26.3,24.0,29.82,NE,36,4.0,9.0,92,0.00,,,0.00,63,weatherlink.com 1.10,2013-02-21 21:14:00,
2013-02-21 15:29:00,26.3,24.0,29.82,East,86,2.0,11.0,92,0.00,,,0.00,53,weatherlink.com 1.10,2013-02-21 21:29:00,
2013-02-21 15:44:00,26.3,24.0,29.82,East,91,6.0,11.0,92,0.00,,,0.00,54,weatherlink.com 1.10,2013-02-21 21:44:00,
2013-02-21 15:59:00,26.7,25.0,29.81,ENE,75,4.0,8.0,92,0.00,,,0.00,81,weatherlink.com 1.10,2013-02-21 21:59:00,
2013-02-21 16:14:00,26.9,25.0,29.81,SE,130,0.0,7.0,92,0.00,,,0.00,42,weatherlink.com 1.10,2013-02-21 22:14:00,
2013-02-21 16:29:00,26.9,25.0,29.81,East,99,1.0,7.0,92,0.00,,,0.00,54,weatherlink.com 1.10,2013-02-21 22:29:00,
2013-02-21 16:44:00,27.1,25.0,29.82,East,97,1.0,3.0,92,0.00,,,0.00,44,weatherlink.com 1.10,2013-02-21 22:44:00,
2013-02-21 16:59:00,27.2,26.0,29.82,East,97,0.0,2.0,93,0.00,,,0.00,28,weatherlink.com 1.10,2013-02-21 22:59:00,
2013-02-21 17:14:00,27.2,26.0,29.82,East,97,1.0,3.0,93,0.00,,,0.00,26,weatherlink.com 1.10,2013-02-21 23:14:00,
2013-02-21 17:29:00,27.0,25.0,29.81,East,97,1.0,3.0,93,0.00,,,0.00,16,weatherlink.com 1.10,2013-02-21 23:29:00,
2013-02-21 17:44:00,27.0,25.0,29.82,East,97,1.0,3.0,93,0.00,,,0.00,0,weatherlink.com 1.10,2013-02-21 23:44:00,
2013-02-21 17:59:00,26.9,25.0,29.82,East,97,1.0,3.0,93,0.00,,,0.00,0,weatherlink.com 1.10,2013-02-21 23:59:00,
2013-02-21 18:14:00,26.9,25.0,29.82,East,97,0.0,2.0,93,0.00,,,0.00,0,weatherlink.com 1.10,2013-02-22 00:14:00,
2013-02-21 18:29:00,26.7,25.0,29.82,East,97,2.0,3.0,93,0.00,,,0.00,0,weatherlink.com 1.10,2013-02-22 00:29:00,
2013-02-21 18:44:00,26.6,25.0,29.80,East,93,3.0,5.0,93,0.00,,,0.00,0,weatherlink.com 1.10,2013-02-22 00:44:00,
2013-02-21 18:59:00,26.4,25.0,29.80,ENE,78,3.0,5.0,93,0.00,,,0.00,0,weatherlink.com 1.10,2013-02-22 00:59:00,
2013-02-21 19:14:00,26.3,25.0,29.81,ENE,77,2.0,4.0,93,0.00,,,0.00,0,weatherlink.com 1.10,2013-02-22 01:14:00,
2013-02-21 19:29:00,26.3,25.0,29.81,ENE,77,1.0,3.0,93,0.00,,,0.00,0,weatherlink.com 1.10,2013-02-22 01:29:00,
2013-02-21 19:44:00,26.2,25.0,29.82,ENE,77,1.0,3.0,93,0.00,,,0.00,0,weatherlink.com 1.10,2013-02-22 01:44:00,
2013-02-21 19:59:00,26.0,24.0,29.82,ENE,77,1.0,4.0,93,0.00,,,0.00,0,weatherlink.com 1.10,2013-02-22 01:59:00,
2013-02-21 20:14:00,25.8,24.0,29.82,ENE,77,1.0,3.0,93,0.00,,,0.00,0,weatherlink.com 1.10,2013-02-22 02:14:00,
2013-02-21 20:29:00,25.6,24.0,29.81,ENE,68,4.0,5.0,93,0.00,,,0.00,0,weatherlink.com 1.10,2013-02-22 02:29:00,
2013-02-21 20:44:00,25.3,24.0,29.81,ENE,58,3.0,5.0,93,0.00,,,0.00,0,weatherlink.com 1.10,2013-02-22 02:44:00,
2013-02-21 20:59:00,25.2,24.0,29.81,ENE,57,1.0,4.0,93,0.00,,,0.00,0,weatherlink.com 1.10,2013-02-22 02:59:00,
2013-02-21 21:14:00,25.1,23.0,29.81,NE,55,2.0,5.0,93,0.00,,,0.00,0,weatherlink.com 1.10,2013-02-22 03:14:00,
2013-02-21 21:29:00,25.1,23.0,29.81,NE,50,1.0,4.0,92,0.00,,,0.00,0,weatherlink.com 1.10,2013-02-22 03:29:00,
2013-02-21 21:44:00,25.1,23.0,29.81,NE,49,3.0,3.0,92,0.00,,,0.00,0,weatherlink.com 1.10,2013-02-22 03:44:00,
2013-02-21 21:59:00,25.0,23.0,29.81,NE,49,3.0,4.0,92,0.00,,,0.00,0,weatherlink.com 1.10,2013-02-22 03:59:00,
2013-02-21 22:14:00,24.9,23.0,29.82,NE,47,1.0,4.0,93,0.00,,,0.00,0,weatherlink.com 1.10,2013-02-22 04:14:00,
2013-02-21 22:29:00,24.8,23.0,29.82,NE,47,0.0,4.0,93,0.00,,,0.00,0,weatherlink.com 1.10,2013-02-22 04:29:00,
2013-02-21 22:44:00,24.8,23.0,29.82,NE,47,0.0,1.0,93,0.00,,,0.00,0,weatherlink.com 1.10,2013-02-22 04:44:00,
2013-02-21 22:59:00,24.7,23.0,29.82,NE,47,0.0,3.0,93,0.00,,,0.00,0,weatherlink.com 1.10,2013-02-22 04:59:00,
2013-02-21 23:14:00,24.7,23.0,29.82,NE,47,0.0,2.0,92,0.00,,,0.00,0,weatherlink.com 1.10,2013-02-22 05:14:00,
2013-02-21 23:29:00,24.7,23.0,29.82,NE,47,2.0,3.0,92,0.00,,,0.00,0,weatherlink.com 1.10,2013-02-22 05:29:00,
2013-02-21 23:44:00,24.6,23.0,29.83,NE,47,0.0,1.0,92,0.00,,,0.00,0,weatherlink.com 1.10,2013-02-22 05:44:00,
2013-02-21 23:59:00,24.6,23.0,29.83,NE,47,0.0,1.0,92,0.00,,,0.00,0,weatherlink.com 1.10,2013-02-22 05:59:00,